This is the latest recevied weather packets stored in our database for station/object CT7BNL-13. If no packets are shown the sender has not sent any weather packets the latest 10 day(s).
| Time | Temp. | Humidity | Pressure | Rain* | Wind** | Luminosity | Snow |
|---|---|---|---|---|---|---|---|
| 1788416366 | 16.67° C | 86% | 1028.2 hPa | 0 mm | - | 14 W/m² | - |
| 1788415465 | 16.67° C | 86% | 1027.9 hPa | 0 mm | - | 4 W/m² | - |
| 1788414565 | 16.67° C | 86% | 1027.7 hPa | 0 mm | - | 0 W/m² | - |
| 1788413667 | 17.22° C | 86% | 1027.4 hPa | 0 mm | - | 0 W/m² | - |
| 1788412765 | 17.22° C | 86% | 1027.3 hPa | 0 mm | - | 0 W/m² | - |
| 1788411865 | 17.22° C | 86% | 1027.4 hPa | 0 mm | - | 0 W/m² | - |
| 1788410066 | 16.11° C | 90% | 1027.2 hPa | 0 mm | - | 0 W/m² | - |
| 1788409166 | 16.11° C | 90% | 1027.1 hPa | 0 mm | - | 0 W/m² | - |
| 1788408266 | 16.67° C | 89% | 1027 hPa | 0 mm | - | 0 W/m² | - |
| 1788407365 | 16.67° C | 88% | 1027.1 hPa | 0 mm | - | 0 W/m² | - |
| 1788406466 | 17.22° C | 87% | 1027 hPa | 0 mm | - | 0 W/m² | - |
| 1788405565 | 17.78° C | 85% | 1027.2 hPa | 0 mm | - | 0 W/m² | - |
| 1788404665 | 17.78° C | 84% | 1027.3 hPa | 0 mm | - | 0 W/m² | - |
| 1788403766 | 18.33° C | 83% | 1027.3 hPa | 0 mm | - | 0 W/m² | - |
| 1788402865 | 17.78° C | 85% | 1027.2 hPa | 0 mm | - | 0 W/m² | - |
| 1788401966 | 17.78° C | 86% | 1027.2 hPa | 0 mm | - | 0 W/m² | - |
| 1788401065 | 18.33° C | 84% | 1027.3 hPa | 0 mm | - | 0 W/m² | - |
| 1788400165 | 18.89° C | 82% | 1027.3 hPa | 0 mm | - | 0 W/m² | - |
| 1788399266 | 18.89° C | 82% | 1027.4 hPa | 0 mm | - | 0 W/m² | - |
| 1788398365 | 18.89° C | 82% | 1027.3 hPa | 0 mm | - | 0 W/m² | - |
| 1788397465 | 19.44° C | 80% | 1027.5 hPa | 0 mm | - | 0 W/m² | - |
| 1788396566 | 19.44° C | 80% | 1027.7 hPa | 0 mm | - | 0 W/m² | - |
| 1788395665 | 19.44° C | 79% | 1027.4 hPa | 0 mm | - | 0 W/m² | - |
| 1788394766 | 18.89° C | 83% | 1027.7 hPa | 0 mm | - | 0 W/m² | - |
| 1788393865 | 20° C | 78% | 1027.7 hPa | 0 mm | - | 0 W/m² | - |
* Rain latest hour (hover to see other rain measurements)
** Current wind speed in m/s (hover to see current wind gust speed)